0608900041,1997,05,01,00,5.4
0608900041,1997,05,01,01,5.03
0608900041,1997,05,01,02,4.65
0608900041,1997,05,01,03,3.77
0608900041,1997,05,01,04,4.11
0608900041,1997,05,01,05,4.13
0608900041,1997,05,01,06,4.05
0608900041,1997,05,01,07,4.39
0608900041,1997,05,01,08,4.5
0608900041,1997,05,01,09,4.44
0608900041,1997,05,01,10,4.64
0608900041,1997,05,01,11,4.76
0608900041,1997,05,01,12,5.08
0608900041,1997,05,01,13,5.19
0608900041,1997,05,01,14,5.16
0608900041,1997,05,01,15,5.08
0608900041,1997,05,01,16,5
0608900041,1997,05,01,17,4.88
0608900041,1997,05,01,18,4.29
0608900041,1997,05,01,19,2.44
0608900041,1997,05,01,20,1.66
0608900041,1997,05,01,21,1.33
0608900041,1997,05,01,22,0.86
0608900041,1997,05,01,23,0.69
0608900041,1997,05,02,00,1.73
0608900041,1997,05,02,01,2.65
0608900041,1997,05,02,02,0.55
0608900041,1997,05,02,03,0.38
0608900041,1997,05,02,04,0.54
0608900041,1997,05,02,05,0.12
0608900041,1997,05,02,06,0.54
0608900041,1997,05,02,07,1.67
0608900041,1997,05,02,08,2.8
0608900041,1997,05,02,09,2.44
0608900041,1997,05,02,10,3.89
0608900041,1997,05,02,11,4.51
0608900041,1997,05,02,12,5.54
0608900041,1997,05,02,13,5.91
0608900041,1997,05,02,14,5.93
0608900041,1997,05,02,15,6.03
0608900041,1997,05,02,16,6
0608900041,1997,05,02,17,6.44
0608900041,1997,05,02,18,5.81
0608900041,1997,05,02,19,3.87
0608900041,1997,05,02,20,2.06
0608900041,1997,05,02,21,2.55
0608900041,1997,05,02,22,4.84
0608900041,1997,05,02,23,4.87
0608900041,1997,05,03,00,4.68
0608900041,1997,05,03,01,3.95
0608900041,1997,05,03,02,3.47
0608900041,1997,05,03,03,2.51
0608900041,1997,05,03,04,1.67
0608900041,1997,05,03,05,1.06
0608900041,1997,05,03,06,1.33
0608900041,1997,05,03,07,3.19
0608900041,1997,05,03,08,3.66
0608900041,1997,05,03,09,3.92
0608900041,1997,05,03,10,4
0608900041,1997,05,03,11,4.26
0608900041,1997,05,03,12,4.23
0608900041,1997,05,03,13,4.48
0608900041,1997,05,03,14,5.18
0608900041,1997,05,03,15,5
0608900041,1997,05,03,16,5.12
0608900041,1997,05,03,17,5.35
0608900041,1997,05,03,18,5.66
0608900041,1997,05,03,19,5.47
0608900041,1997,05,03,20,4.93
0608900041,1997,05,03,21,4.68
0608900041,1997,05,03,22,4.59
0608900041,1997,05,03,23,3.55
0608900041,1997,05,04,00,4.08
0608900041,1997,05,04,01,4.4
0608900041,1997,05,04,02,2.75
0608900041,1997,05,04,03,1.8
0608900041,1997,05,04,04,1.67
0608900041,1997,05,04,05,1.33
0608900041,1997,05,04,06,2.26
0608900041,1997,05,04,07,3.12
0608900041,1997,05,04,08,3.55
0608900041,1997,05,04,09,4.39
0608900041,1997,05,04,10,4.99
0608900041,1997,05,04,11,5.84
0608900041,1997,05,04,12,6.07
0608900041,1997,05,04,13,5.95
0608900041,1997,05,04,14,6.05
0608900041,1997,05,04,15,5.94
0608900041,1997,05,04,16,5.72
0608900041,1997,05,04,17,6.02
0608900041,1997,05,04,18,4.69
0608900041,1997,05,04,19,2.15
0608900041,1997,05,04,20,0.98
0608900041,1997,05,04,21,1.82
0608900041,1997,05,04,22,1.57
0608900041,1997,05,04,23,2.84
0608900041,1997,05,05,00,3.64
0608900041,1997,05,05,01,2.81
0608900041,1997,05,05,02,2.3
0608900041,1997,05,05,03,2.04
0608900041,1997,05,05,04,2.29
0608900041,1997,05,05,05,0.68
0608900041,1997,05,05,06,1.11
0608900041,1997,05,05,07,4.89
0608900041,1997,05,05,08,2.92
0608900041,1997,05,05,09,4.06
0608900041,1997,05,05,10,3.41
0608900041,1997,05,06,14,5.76
0608900041,1997,05,06,15,5.67
0608900041,1997,05,06,16,5.76
0608900041,1997,05,06,17,5.89
0608900041,1997,05,06,18,4.01
0608900041,1997,05,06,19,3.06
0608900041,1997,05,06,20,2.24
0608900041,1997,05,06,21,2.9
0608900041,1997,05,06,22,2.89
0608900041,1997,05,06,23,3.99
0608900041,1997,05,07,00,4.66
0608900041,1997,05,07,01,4.16
0608900041,1997,05,07,02,4.33
0608900041,1997,05,07,03,5.02
0608900041,1997,05,07,04,4.82
0608900041,1997,05,07,05,4.51
0608900041,1997,05,07,06,4.26
0608900041,1997,05,07,07,4.7
0608900041,1997,05,07,08,5.51
0608900041,1997,05,07,09,5.59
0608900041,1997,05,07,10,5.54
0608900041,1997,05,07,11,5.67
0608900041,1997,05,07,12,5.93
0608900041,1997,05,07,13,6.02
0608900041,1997,05,07,14,5.75
0608900041,1997,05,07,15,5.89
0608900041,1997,05,07,16,5.85
0608900041,1997,05,07,17,5.04
0608900041,1997,05,07,18,2.69
0608900041,1997,05,07,19,1.71
0608900041,1997,05,07,20,1.55
0608900041,1997,05,07,21,1.52
0608900041,1997,05,07,22,0.91
0608900041,1997,05,07,23,0.92
0608900041,1997,05,08,00,0.86
0608900041,1997,05,08,01,2.03
0608900041,1997,05,08,02,2.2
0608900041,1997,05,08,03,1.98
0608900041,1997,05,08,04,1.14
0608900041,1997,05,08,05,0.65
0608900041,1997,05,08,06,0.95
0608900041,1997,05,08,07,1.96
0608900041,1997,05,08,08,3.27
0608900041,1997,05,08,09,4.5
0608900041,1997,05,08,10,5.72
0608900041,1997,05,08,11,6.3
0608900041,1997,05,08,12,7.57
0608900041,1997,05,08,13,7.69
0608900041,1997,05,08,14,7.68
0608900041,1997,05,08,15,7.76
0608900041,1997,05,08,16,7.39
0608900041,1997,05,08,17,7.87
0608900041,1997,05,08,18,7.95
0608900041,1997,05,08,19,6.08
0608900041,1997,05,08,20,5.17
0608900041,1997,05,08,21,2.51
0608900041,1997,05,08,22,2.84
0608900041,1997,05,08,23,2.38
0608900041,1997,05,09,00,2.37
0608900041,1997,05,09,01,3.08
0608900041,1997,05,09,02,3.05
0608900041,1997,05,09,03,1.66
0608900041,1997,05,09,04,2.25
0608900041,1997,05,09,05,2.37
0608900041,1997,05,09,06,1.37
0608900041,1997,05,09,07,3.13
0608900041,1997,05,09,08,3.97
0608900041,1997,05,09,09,5.28
0608900041,1997,05,09,10,6.78
0608900041,1997,05,09,11,7.51
0608900041,1997,05,09,12,7.45
0608900041,1997,05,09,13,8.05
0608900041,1997,05,09,14,8.32
0608900041,1997,05,09,15,8.02
0608900041,1997,05,09,16,7.37
0608900041,1997,05,09,17,7.59
0608900041,1997,05,09,18,5.19
0608900041,1997,05,09,19,2.2
0608900041,1997,05,09,20,1.94
0608900041,1997,05,09,21,0.95
0608900041,1997,05,09,22,2.19
0608900041,1997,05,09,23,3.24
0608900041,1997,05,10,00,3.83
0608900041,1997,05,10,01,3.4
0608900041,1997,05,10,02,3.87
0608900041,1997,05,10,03,3.83
0608900041,1997,05,10,04,2.19
0608900041,1997,05,10,05,1.47
0608900041,1997,05,10,06,2.14
0608900041,1997,05,10,07,3.72
0608900041,1997,05,10,08,4.73
0608900041,1997,05,10,09,5.83
0608900041,1997,05,10,10,6.56
0608900041,1997,05,10,11,7.66
0608900041,1997,05,10,12,8.61
0608900041,1997,05,10,13,8.12
0608900041,1997,05,10,14,8.41
0608900041,1997,05,10,15,8.49
0608900041,1997,05,10,16,7.4
0608900041,1997,05,10,17,6.46
0608900041,1997,05,10,18,3.86
0608900041,1997,05,10,19,2.68
0608900041,1997,05,10,20,2.27
0608900041,1997,05,10,21,2.22
0608900041,1997,05,10,22,3.15
0608900041,1997,05,10,23,2.06
0608900041,1997,05,11,00,2.03
0608900041,1997,05,11,01,3.36
0608900041,1997,05,11,02,2.51
0608900041,1997,05,11,03,1.6
0608900041,1997,05,11,04,2.5
0608900041,1997,05,11,05,1.76
0608900041,1997,05,11,06,1.91
0608900041,1997,05,11,07,3.63
0608900041,1997,05,11,08,4.77
0608900041,1997,05,11,09,5.72
0608900041,1997,05,11,10,7.56
0608900041,1997,05,11,11,9.14
0608900041,1997,05,11,12,8.47
0608900041,1997,05,11,13,8.53
0608900041,1997,05,11,14,8.98
0608900041,1997,05,11,15,8.9
0608900041,1997,05,11,16,9.24
0608900041,1997,05,11,17,8.76
0608900041,1997,05,11,18,6.1
0608900041,1997,05,11,19,3.39
0608900041,1997,05,11,20,3.52
0608900041,1997,05,11,21,3
0608900041,1997,05,11,22,2.93
0608900041,1997,05,11,23,3.31
0608900041,1997,05,12,00,4.03
0608900041,1997,05,12,01,4.21
0608900041,1997,05,12,02,4.95
0608900041,1997,05,12,03,4.58
0608900041,1997,05,12,04,4.21
0608900041,1997,05,12,05,2.91
0608900041,1997,05,12,06,2.77
0608900041,1997,05,12,07,4.4
0608900041,1997,05,12,08,5.31
0608900041,1997,05,12,09,6.94
0608900041,1997,05,12,10,8.85
0608900041,1997,05,12,11,9.19
0608900041,1997,05,12,12,9.17
0608900041,1997,05,12,13,9.65
0608900041,1997,05,12,14,9.42
0608900041,1997,05,12,15,8.81
0608900041,1997,05,12,16,7.7
0608900041,1997,05,12,17,6.86
0608900041,1997,05,12,18,5.58
0608900041,1997,05,12,19,3.47
0608900041,1997,05,12,20,2.85
0608900041,1997,05,12,21,1.79
0608900041,1997,05,12,22,1.62
0608900041,1997,05,12,23,0.82
0608900041,1997,05,13,00,1.84
0608900041,1997,05,13,01,3
0608900041,1997,05,13,02,1.55
0608900041,1997,05,13,03,0.67
0608900041,1997,05,13,04,1.57
0608900041,1997,05,13,05,0.81
0608900041,1997,05,13,06,0.73
0608900041,1997,05,13,07,2.13
0608900041,1997,05,13,08,2.64
0608900041,1997,05,13,09,4.77
0608900041,1997,05,13,10,6.21
0608900041,1997,05,13,11,7.74
0608900041,1997,05,13,12,8.2
0608900041,1997,05,13,13,7.76
0608900041,1997,05,13,14,8.53
0608900041,1997,05,13,15,8.89
0608900041,1997,05,13,16,7.93
0608900041,1997,05,13,17,7.59
0608900041,1997,05,13,18,6.78
0608900041,1997,05,13,19,5.81
0608900041,1997,05,13,20,6.42
0608900041,1997,05,13,21,5.03
0608900041,1997,05,13,22,3.44
0608900041,1997,05,13,23,2.59
0608900041,1997,05,14,00,2.33
0608900041,1997,05,14,01,2.23
0608900041,1997,05,14,02,1.59
0608900041,1997,05,14,03,0.93
0608900041,1997,05,14,04,0.46
0608900041,1997,05,14,05,0.5
0608900041,1997,05,14,06,0.8
0608900041,1997,05,14,07,1.87
0608900041,1997,05,14,08,3.1
0608900041,1997,05,14,10,5.52
0608900041,1997,05,14,11,6.22
0608900041,1997,05,14,12,5.98
0608900041,1997,05,14,13,5.25
0608900041,1997,05,14,14,4.65
0608900041,1997,05,14,15,4.29
0608900041,1997,05,14,16,3.96
0608900041,1997,05,14,17,3.85
0608900041,1997,05,14,18,4.05
0608900041,1997,05,14,19,3.98
0608900041,1997,05,14,20,2.68
0608900041,1997,05,14,21,1.83
0608900041,1997,05,14,22,2
0608900041,1997,05,14,23,1.72
0608900041,1997,05,15,00,1.27
0608900041,1997,05,15,01,0.72
0608900041,1997,05,15,02,1.07
0608900041,1997,05,15,03,0.55
0608900041,1997,05,15,04,0.2
0608900041,1997,05,15,05,0.17
0608900041,1997,05,15,06,0.65
0608900041,1997,05,15,07,1.47
0608900041,1997,05,15,08,3.04
0608900041,1997,05,15,09,4.02
0608900041,1997,05,15,10,4.59
0608900041,1997,05,15,11,4.93
0608900041,1997,05,15,12,4.92
0608900041,1997,05,15,13,4.74
0608900041,1997,05,15,14,4.69
0608900041,1997,05,15,15,4.91
0608900041,1997,05,15,16,5.26
0608900041,1997,05,15,17,5.27
0608900041,1997,05,15,18,4.91
0608900041,1997,05,15,19,2.58
0608900041,1997,05,15,20,1.09
0608900041,1997,05,15,21,1.51
0608900041,1997,05,15,22,1.22
0608900041,1997,05,15,23,1.61
0608900041,1997,05,16,00,2.87
0608900041,1997,05,16,01,2.78
0608900041,1997,05,16,02,2.14
0608900041,1997,05,16,03,1.48
0608900041,1997,05,16,04,1.89
0608900041,1997,05,16,05,1.89
0608900041,1997,05,16,06,1.99
0608900041,1997,05,16,07,2.62
0608900041,1997,05,16,08,3.72
0608900041,1997,05,16,09,3.83
0608900041,1997,05,16,10,4.26
0608900041,1997,05,16,11,3.73
0608900041,1997,05,16,12,4.12
0608900041,1997,05,16,13,4.62
0608900041,1997,05,16,14,3.3
0608900041,1997,05,16,15,2.33
0608900041,1997,05,16,16,2.73
0608900041,1997,05,16,17,3.22
0608900041,1997,05,16,18,2.41
0608900041,1997,05,16,19,0.81
0608900041,1997,05,16,20,0.34
0608900041,1997,05,16,21,1.13
0608900041,1997,05,16,22,1.92
0608900041,1997,05,16,23,2.46
0608900041,1997,05,17,00,1.78
0608900041,1997,05,17,01,1.08
0608900041,1997,05,17,02,2.57
0608900041,1997,05,17,03,2.76
0608900041,1997,05,17,04,2.75
0608900041,1997,05,17,05,2.62
0608900041,1997,05,17,06,2.56
0608900041,1997,05,17,07,2.75
0608900041,1997,05,17,08,3.49
0608900041,1997,05,17,09,3.95
0608900041,1997,05,17,10,4.51
0608900041,1997,05,17,11,4.59
0608900041,1997,05,17,12,4.92
0608900041,1997,05,17,13,4.91
0608900041,1997,05,17,14,5.12
0608900041,1997,05,17,15,5.22
0608900041,1997,05,17,16,5.29
0608900041,1997,05,17,17,4.01
0608900041,1997,05,17,18,2.98
0608900041,1997,05,17,19,2.14
0608900041,1997,05,17,20,2.27
0608900041,1997,05,17,21,2.51
0608900041,1997,05,17,22,1.39
0608900041,1997,05,17,23,0.24
0608900041,1997,05,18,00,0.6
0608900041,1997,05,18,01,0.44
0608900041,1997,05,18,02,1.44
0608900041,1997,05,18,03,1.31
0608900041,1997,05,18,04,0.58
0608900041,1997,05,18,05,1.3
0608900041,1997,05,18,06,1.66
0608900041,1997,05,18,07,2.3
0608900041,1997,05,18,08,3.65
0608900041,1997,05,18,09,5.08
0608900041,1997,05,18,10,5.32
0608900041,1997,05,18,11,5.07
0608900041,1997,05,18,12,5.01
0608900041,1997,05,18,13,4.91
0608900041,1997,05,18,14,5.19
0608900041,1997,05,18,15,5.53
0608900041,1997,05,18,16,5.45
0608900041,1997,05,18,17,5.18
0608900041,1997,05,18,18,3.85
0608900041,1997,05,18,19,3.28
0608900041,1997,05,18,20,3.85
0608900041,1997,05,18,21,4.21
0608900041,1997,05,18,22,4.3
0608900041,1997,05,18,23,1.94
0608900041,1997,05,19,00,0.59
0608900041,1997,05,19,01,0.65
0608900041,1997,05,19,02,0.24
0608900041,1997,05,19,03,0.17
0608900041,1997,05,19,04,0.23
0608900041,1997,05,19,05,0.26
0608900041,1997,05,19,06,0.97
0608900041,1997,05,19,07,2.96
0608900041,1997,05,19,08,4.46
0608900041,1997,05,19,09,5.99
0608900041,1997,05,19,10,5.84
0608900041,1997,05,19,11,6.44
0608900041,1997,05,19,12,6.39
0608900041,1997,05,19,13,6.38
0608900041,1997,05,19,14,6.85
0608900041,1997,05,19,15,7.04
0608900041,1997,05,19,16,6.67
0608900041,1997,05,19,17,6.34
0608900041,1997,05,19,18,6.24
0608900041,1997,05,19,19,6
0608900041,1997,05,19,20,4.1
0608900041,1997,05,19,21,3.24
0608900041,1997,05,19,22,3.02
0608900041,1997,05,19,23,2.99
0608900041,1997,05,20,00,2.77
0608900041,1997,05,20,01,2.3
0608900041,1997,05,20,02,3.56
0608900041,1997,05,20,03,6.17
0608900041,1997,05,20,04,4.19
0608900041,1997,05,20,05,2.16
0608900041,1997,05,20,06,1.21
0608900041,1997,05,20,07,2.23
0608900041,1997,05,20,08,4.92
0608900041,1997,05,20,09,5.29
0608900041,1997,05,20,10,6.44
0608900041,1997,05,20,11,6.87
0608900041,1997,05,20,12,6.94
0608900041,1997,05,20,13,6.89
0608900041,1997,05,20,14,7.23
0608900041,1997,05,20,15,7.3
0608900041,1997,05,20,16,7.26
0608900041,1997,05,20,17,7.88
0608900041,1997,05,20,18,7.96
0608900041,1997,05,20,19,7.15
0608900041,1997,05,20,20,7.16
0608900041,1997,05,20,21,4.98
0608900041,1997,05,20,22,3.85
0608900041,1997,05,20,23,3.84
0608900041,1997,05,21,00,2.71
0608900041,1997,05,21,01,2.09
0608900041,1997,05,21,02,2.27
0608900041,1997,05,21,03,1.87
0608900041,1997,05,21,04,1.28
0608900041,1997,05,21,05,1.03
0608900041,1997,05,21,06,1.06
0608900041,1997,05,21,07,2.37
0608900041,1997,05,21,08,4.33
0608900041,1997,05,21,09,5.35
0608900041,1997,05,21,10,6.7
0608900041,1997,05,21,11,7.39
0608900041,1997,05,21,12,7.67
0608900041,1997,05,21,13,7.35
0608900041,1997,05,21,14,6.95
0608900041,1997,05,21,15,6.51
0608900041,1997,05,21,16,6.22
0608900041,1997,05,21,17,6.64
0608900041,1997,05,21,18,5.8
0608900041,1997,05,21,19,5.09
0608900041,1997,05,21,20,2.26
0608900041,1997,05,21,21,2
0608900041,1997,05,21,22,2.12
0608900041,1997,05,21,23,2.19
0608900041,1997,05,22,00,2.46
0608900041,1997,05,22,01,3.98
0608900041,1997,05,22,02,3.43
0608900041,1997,05,22,03,2.72
0608900041,1997,05,22,04,1.04
0608900041,1997,05,22,05,0.64
0608900041,1997,05,22,06,0.82
0608900041,1997,05,22,07,1.92
0608900041,1997,05,22,08,4.11
0608900041,1997,05,22,09,4.66
0608900041,1997,05,22,10,4.73
0608900041,1997,05,22,11,5
0608900041,1997,05,22,12,5.51
0608900041,1997,05,22,13,5.47
0608900041,1997,05,22,14,5.47
0608900041,1997,05,22,15,5.53
0608900041,1997,05,22,16,5.29
0608900041,1997,05,22,17,5.05
0608900041,1997,05,22,18,4.68
0608900041,1997,05,22,19,4.82
0608900041,1997,05,22,20,5.34
0608900041,1997,05,22,21,5.31
0608900041,1997,05,22,22,4.76
0608900041,1997,05,22,23,3.56
0608900041,1997,05,23,00,2.8
0608900041,1997,05,23,01,2.43
0608900041,1997,05,23,02,1.5
0608900041,1997,05,23,03,1.83
0608900041,1997,05,23,04,2.32
0608900041,1997,05,23,05,2.17
0608900041,1997,05,23,06,1.55
0608900041,1997,05,23,07,1.66
0608900041,1997,05,23,08,1.67
0608900041,1997,05,23,09,1.97
0608900041,1997,05,23,10,2.46
0608900041,1997,05,23,11,2.55
0608900041,1997,05,23,12,3.27
0608900041,1997,05,23,13,3.46
0608900041,1997,05,23,14,2.98
0608900041,1997,05,23,15,3.34
0608900041,1997,05,23,16,3.31
0608900041,1997,05,23,17,3.04
0608900041,1997,05,23,18,3.06
0608900041,1997,05,23,19,2.75
0608900041,1997,05,23,20,2.15
0608900041,1997,05,23,21,1.09
0608900041,1997,05,23,22,0.34
0608900041,1997,05,23,23,0.29
0608900041,1997,05,24,00,0.25
0608900041,1997,05,24,01,0.21
0608900041,1997,05,24,02,0.19
0608900041,1997,05,24,03,0.27
0608900041,1997,05,24,04,0.2
0608900041,1997,05,24,05,0.18
0608900041,1997,05,24,06,0.53
0608900041,1997,05,24,07,1.27
0608900041,1997,05,24,08,1.84
0608900041,1997,05,24,09,2.72
0608900041,1997,05,24,10,3.47
0608900041,1997,05,24,11,3.94
0608900041,1997,05,24,12,4.22
0608900041,1997,05,24,13,4.24
0608900041,1997,05,24,14,4.57
0608900041,1997,05,24,15,4.52
0608900041,1997,05,24,16,4.36
0608900041,1997,05,24,17,4.33
0608900041,1997,05,24,18,4.19
0608900041,1997,05,24,19,3.93
0608900041,1997,05,24,20,3.71
0608900041,1997,05,24,21,3.45
0608900041,1997,05,24,22,3.13
0608900041,1997,05,24,23,3.31
0608900041,1997,05,25,00,3.31
0608900041,1997,05,25,01,3.35
0608900041,1997,05,25,02,2.99
0608900041,1997,05,25,03,2.92
0608900041,1997,05,25,04,3.36
0608900041,1997,05,25,05,3.65
0608900041,1997,05,25,06,3.86
0608900041,1997,05,25,07,3.9
0608900041,1997,05,25,08,3.89
0608900041,1997,05,25,09,4.02
0608900041,1997,05,25,10,4.39
0608900041,1997,05,25,11,4.86
0608900041,1997,05,25,12,5.29
0608900041,1997,05,25,13,5.6
0608900041,1997,05,25,14,5.61
0608900041,1997,05,25,15,5.11
0608900041,1997,05,25,16,4.18
0608900041,1997,05,25,17,3.72
0608900041,1997,05,25,18,3.83
0608900041,1997,05,25,19,3.05
0608900041,1997,05,25,20,1.98
0608900041,1997,05,25,21,1.43
0608900041,1997,05,25,22,0.78
0608900041,1997,05,25,23,0.56
0608900041,1997,05,26,00,0.55
0608900041,1997,05,26,01,0.59
0608900041,1997,05,26,02,0.53
0608900041,1997,05,26,03,1.35
0608900041,1997,05,26,04,1.1
0608900041,1997,05,26,05,0.25
0608900041,1997,05,26,06,1.22
0608900041,1997,05,26,07,1.88
0608900041,1997,05,26,08,2.5
0608900041,1997,05,26,09,2.99
0608900041,1997,05,26,10,3.13
0608900041,1997,05,26,11,4.35
0608900041,1997,05,26,12,4.52
0608900041,1997,05,26,13,4.57
0608900041,1997,05,26,14,4.67
0608900041,1997,05,26,15,4.74
0608900041,1997,05,26,16,4.55
0608900041,1997,05,26,17,4.67
0608900041,1997,05,26,18,4.58
0608900041,1997,05,26,19,3.72
0608900041,1997,05,26,20,3.15
0608900041,1997,05,26,21,3.17
0608900041,1997,05,26,22,3.01
0608900041,1997,05,26,23,3.05
0608900041,1997,05,27,00,2.83
0608900041,1997,05,27,01,2.57
0608900041,1997,05,27,02,2.28
0608900041,1997,05,27,03,1.69
0608900041,1997,05,27,04,1.88
0608900041,1997,05,27,05,1.67
0608900041,1997,05,27,06,1.64
0608900041,1997,05,27,07,1.62
0608900041,1997,05,27,08,2.18
0608900041,1997,05,27,09,3.05
0608900041,1997,05,27,10,3.67
0608900041,1997,05,27,11,3.64
0608900041,1997,05,27,12,3.63
0608900041,1997,05,27,13,3.93
0608900041,1997,05,27,14,4.77
0608900041,1997,05,27,15,5
0608900041,1997,05,27,16,5.22
0608900041,1997,05,27,17,4.77
0608900041,1997,05,27,18,3.61
0608900041,1997,05,27,19,1.66
0608900041,1997,05,27,20,1.5
0608900041,1997,05,27,21,2.04
0608900041,1997,05,27,22,2.12
0608900041,1997,05,27,23,2.06
0608900041,1997,05,28,00,2.09
0608900041,1997,05,28,01,1.59
0608900041,1997,05,28,02,1.84
0608900041,1997,05,28,03,1.84
0608900041,1997,05,28,04,0.93
0608900041,1997,05,28,05,0.3
0608900041,1997,05,28,06,0.14
0608900041,1997,05,28,07,0.65
0608900041,1997,05,28,08,1.27
0608900041,1997,05,28,09,1.55
0608900041,1997,05,28,10,1.95
0608900041,1997,05,28,11,2.38
0608900041,1997,05,28,12,3
0608900041,1997,05,28,13,3.76
0608900041,1997,05,28,14,3.8
0608900041,1997,05,28,15,1.9
0608900041,1997,05,28,16,1.45
0608900041,1997,05,28,17,1.35
0608900041,1997,05,28,18,1.87
0608900041,1997,05,28,19,1.41
0608900041,1997,05,28,20,1.55
0608900041,1997,05,28,21,2.01
0608900041,1997,05,28,22,2.69
0608900041,1997,05,28,23,2.66
0608900041,1997,05,29,00,2.43
0608900041,1997,05,29,01,0.7
0608900041,1997,05,29,02,0.17
0608900041,1997,05,29,03,0.19
0608900041,1997,05,29,04,0.83
0608900041,1997,05,29,05,0.68
0608900041,1997,05,29,06,0.83
0608900041,1997,05,29,08,2.44
0608900041,1997,05,29,09,2.94
0608900041,1997,05,29,10,3.57
0608900041,1997,05,29,11,4.25
0608900041,1997,05,29,12,4.56
0608900041,1997,05,29,13,5.15
0608900041,1997,05,29,14,5.31
0608900041,1997,05,29,15,5.65
0608900041,1997,05,29,16,5.65
0608900041,1997,05,29,17,5.19
0608900041,1997,05,29,18,4.06
0608900041,1997,05,29,19,2.22
0608900041,1997,05,29,20,0.98
0608900041,1997,05,29,21,0.91
0608900041,1997,05,29,22,0.33
0608900041,1997,05,29,23,1
0608900041,1997,05,30,00,1.85
0608900041,1997,05,30,01,1.86
0608900041,1997,05,30,02,1.76
0608900041,1997,05,30,03,1.65
0608900041,1997,05,30,04,1.47
0608900041,1997,05,30,05,1.57
0608900041,1997,05,30,06,1.65
0608900041,1997,05,30,07,2.12
0608900041,1997,05,30,08,2.97
0608900041,1997,05,30,09,4.72
0608900041,1997,05,30,10,5.85
0608900041,1997,05,30,11,5.95
0608900041,1997,05,30,12,5.36
0608900041,1997,05,30,13,4.86
0608900041,1997,05,30,14,4.33
0608900041,1997,05,30,15,4.9
0608900041,1997,05,30,16,4.41
0608900041,1997,05,30,17,4.27
0608900041,1997,05,30,18,4.26
0608900041,1997,05,30,19,4.1
0608900041,1997,05,30,20,3.86
0608900041,1997,05,30,21,2.11
0608900041,1997,05,30,22,1.85
0608900041,1997,05,30,23,1.11
0608900041,1997,05,31,00,0.55
0608900041,1997,05,31,01,1.05
0608900041,1997,05,31,02,0.92
0608900041,1997,05,31,03,0.48
0608900041,1997,05,31,04,0.33
0608900041,1997,05,31,05,0.51
0608900041,1997,05,31,06,0.69
0608900041,1997,05,31,07,0.98
0608900041,1997,05,31,08,2.08
0608900041,1997,05,31,09,2.82
0608900041,1997,05,31,10,3.25
0608900041,1997,05,31,11,3.6
0608900041,1997,05,31,12,3.75
0608900041,1997,05,31,13,3.69
0608900041,1997,05,31,14,3.84
0608900041,1997,05,31,15,3.89
0608900041,1997,05,31,16,3.52
0608900041,1997,05,31,17,3.54
0608900041,1997,05,31,18,3.68
0608900041,1997,05,31,19,3.62
0608900041,1997,05,31,20,3.19
0608900041,1997,05,31,21,3.69
0608900041,1997,05,31,22,3.6
0608900041,1997,05,31,23,3.79
0608900041,1997,06,01,00,3.64
0608900041,1997,06,01,01,3.6
0608900041,1997,06,01,02,3.62
0608900041,1997,06,01,03,3.66
0608900041,1997,06,01,04,3.58
0608900041,1997,06,01,05,3.67
0608900041,1997,06,01,06,3.58
0608900041,1997,06,01,07,3.4
0608900041,1997,06,01,08,3.26
0608900041,1997,06,01,09,3.46
0608900041,1997,06,01,10,3.38
0608900041,1997,06,01,11,3.28
0608900041,1997,06,01,12,3.36
0608900041,1997,06,01,13,3.61
0608900041,1997,06,01,14,4.05
0608900041,1997,06,01,15,4.41
0608900041,1997,06,01,16,4.59
0608900041,1997,06,01,17,4.81
0608900041,1997,06,01,18,4.26
0608900041,1997,06,01,19,3.76
0608900041,1997,06,01,20,3.74
0608900041,1997,06,01,21,3.99
0608900041,1997,06,01,22,3.47
0608900041,1997,06,01,23,3.68
0608900041,1997,06,02,00,3.5
0608900041,1997,06,02,01,3.47
0608900041,1997,06,02,02,3.29
0608900041,1997,06,02,03,3.28
0608900041,1997,06,02,04,2.81
0608900041,1997,06,02,05,2.92
0608900041,1997,06,02,06,2.85
0608900041,1997,06,02,07,2.99
0608900041,1997,06,02,09,4.14
0608900041,1997,06,02,10,4.67
0608900041,1997,06,02,11,4.96
0608900041,1997,06,02,12,4.87
0608900041,1997,06,02,13,5.33
0608900041,1997,06,02,14,5.19
0608900041,1997,06,02,15,4.96
0608900041,1997,06,02,16,4.51
0608900041,1997,06,02,17,4.44
0608900041,1997,06,02,18,3.76
0608900041,1997,06,02,19,3.68
0608900041,1997,06,02,20,3.22
0608900041,1997,06,02,21,3.35
0608900041,1997,06,02,22,3.43
0608900041,1997,06,02,23,2.92
0608900041,1997,06,03,00,2.77
0608900041,1997,06,03,01,2.61
0608900041,1997,06,03,02,2.38
0608900041,1997,06,03,03,1.99
0608900041,1997,06,03,04,1.74
0608900041,1997,06,03,05,1.17
0608900041,1997,06,03,06,0.78
0608900041,1997,06,03,07,0.69
0608900041,1997,06,03,08,0.78
0608900041,1997,06,03,09,1.13
0608900041,1997,06,03,10,1.36
0608900041,1997,06,03,11,1.69
0608900041,1997,06,03,12,1.86
0608900041,1997,06,03,13,2.35
0608900041,1997,06,03,14,2.61